Hannover, Germany

05:45 AM CEST am 26. Juni 2017 (GMT +0200)
Hannover

Wetter Verlauf für EDDV - Juni, 2017

Change the Weather History Date:

Montag, Juni 19, 2017

  Actual Average Record
Temperature  
mittlereTemperatur 73 °F -  
Max. Temperatur 86 °F 71 °F 91 °F (2000)
Min.Temperatur 60 °F 53 °F 44 °F (1997)
Cooling Degree Days 8    
Growing Degree Days 23 (Base 50)    
Moisture  
Taupunkt 58 °F    
Average Humidity 61    
Maximum Humidity 94    
Minimum Humidity 30    
Niederschlag  
Niederschlag 0.00 inch 0.09 inch - ()
Luftdruck in Meereshöhe  
Luftdruck in Meereshöhe 30.14 inch    
Wind  
Windgeschwindigkeit 4 mph ()    
Max. Windgeschwindigkeit 8 mph    
Max Gust Speed 17 mph    
Sichtweite 6.2 Meilen    
Ereignisse Nebel    
Averages and records for this station are not official NWS values.
T = Trace of Precipitation, MM = Missing Value Source: Averaged Metar Reports

Daily Weather History Graph

Daily Weather History Graph

Search for Another Location

Airport or City:

Trip Planner

Search our weather history database for the weather conditions in past years. The results will help you decide how hot, cold, wet, or windy it might be!

Date:

Astronomie

Jun. 19, 2017 Aufgang Untergang
Genaue Zeit 04:57 CEST 21:47 CEST
Bürgerliche Dämmerung 04:07 CEST 22:37 CEST
Nautische Dämmerung 02:45 CEST 00:00 CEST
Astronomische Dämmerung Sun does not set Sun does not set
Mond 02:25 CEST (6/19) 15:36 CEST (6/19)
Länge des sichtbaren Lichts 18h 29m
Tageslänge
16h 49m
Letztes Viertel, 29% of the Moon is Illuminated
Jun 19
Letztes Viertel
Jun 24
Neu
Jul 1
Erstes Viertel
Jul 9
Vollmond
Jul 16
Letztes Viertel

Hourly Weather History & Observations

Zeit (CEST) Temp. Hitzeindex Taupunkt Feuchtigkeit Druck Sichtweite Wind Dir Windgeschwindigkeit Böengeschwindigkeit Precip Ereignisse Wetterzustand
12:20 AM 66.2 °F - 60.8 °F 83% 30.21 inch - Ost-Nordost 1.2 mph - N/A   Heiter
12:50 AM 64.4 °F - 59.0 °F 83% 30.21 inch - Ost-Nordost 4.6 mph - N/A   Heiter
1:20 AM 62.6 °F - 59.0 °F 88% 30.21 inch - Ost-Nordost 4.6 mph - N/A   Heiter
1:50 AM 62.6 °F - 60.8 °F 94% 30.21 inch - Ost-Nordost 3.5 mph - N/A   Heiter
2:20 AM 62.6 °F - 59.0 °F 88% 30.21 inch - Ost 2.3 mph - N/A   Heiter
2:50 AM 62.6 °F - 59.0 °F 88% 30.21 inch - Ost-Nordost 4.6 mph - N/A   Heiter
3:20 AM 60.8 °F - 59.0 °F 94% 30.21 inch - Ost-Nordost 3.5 mph - N/A   Heiter
3:50 AM 60.8 °F - 59.0 °F 94% 30.21 inch 6.2 mi Ost 3.5 mph - N/A Nebel Leichter Nebel
4:20 AM 60.8 °F - 59.0 °F 94% 30.21 inch 6.2 mi Ost 4.6 mph - N/A Nebel Leichter Nebel
4:50 AM 60.8 °F - 59.0 °F 94% 30.21 inch 6.2 mi Ost-Nordost 4.6 mph - N/A Nebel Leichter Nebel
5:20 AM 60.8 °F - 59.0 °F 94% 30.21 inch 6.2 mi Ost 2.3 mph - N/A Nebel Leichter Nebel
5:50 AM 60.8 °F - 59.0 °F 94% 30.21 inch 6.2 mi Ost 3.5 mph - N/A Nebel Leichter Nebel
6:20 AM 62.6 °F - 59.0 °F 88% 30.21 inch 6.2 mi Wechselnd 2.3 mph - N/A Nebel Leichter Nebel
6:50 AM 64.4 °F - 60.8 °F 88% 30.21 inch - Wechselnd 2.3 mph - N/A   Heiter
7:20 AM 68.0 °F - 60.8 °F 78% 30.21 inch - Wechselnd 2.3 mph - N/A   Heiter
7:50 AM 71.6 °F - 60.8 °F 69% 30.21 inch - Süd-Südost 5.8 mph - N/A   Heiter
8:20 AM 71.6 °F - 60.8 °F 69% 30.21 inch - Süd-Südost 4.6 mph - N/A   Heiter
8:50 AM 75.2 °F - 59.0 °F 57% 30.21 inch - Südost 3.5 mph - N/A   Heiter
9:20 AM 77.0 °F - 59.0 °F 54% 30.18 inch - Süd-Südost 4.6 mph - N/A   Heiter
9:50 AM 77.0 °F - 59.0 °F 54% 30.18 inch - Süd 5.8 mph - N/A   Heiter
10:20 AM 77.0 °F - 59.0 °F 54% 30.18 inch 6.2 mi Süd 4.6 mph 17.3 mph N/A   Teils Wolkig
10:50 AM 78.8 °F - 59.0 °F 51% 30.18 inch 6.2 mi Südost 4.6 mph - N/A   Teils Wolkig
11:20 AM 78.8 °F - 59.0 °F 51% 30.18 inch 6.2 mi Ost-Südost 6.9 mph - N/A   Teils Wolkig
11:50 AM 78.8 °F - 59.0 °F 51% 30.18 inch 6.2 mi Südost 5.8 mph - N/A   Teils Wolkig
12:20 PM 80.6 °F 81.1 °F 59.0 °F 48% 30.15 inch 6.2 mi Süd 5.8 mph - N/A   Teils Wolkig
12:50 PM 80.6 °F 80.8 °F 57.2 °F 45% 30.15 inch - Süd-Südost 6.9 mph - N/A   Heiter
1:20 PM 82.4 °F 82.0 °F 57.2 °F 42% 30.15 inch - Süd 8.1 mph - N/A   Heiter
1:50 PM 82.4 °F 82.0 °F 57.2 °F 42% 30.12 inch - Süd-Südost 5.8 mph - N/A   Heiter
2:20 PM 82.4 °F 81.4 °F 53.6 °F 37% 30.12 inch - Süd-Südwest 4.6 mph - N/A   Heiter
2:50 PM 84.2 °F 82.8 °F 53.6 °F 35% 30.12 inch - Wechselnd 5.8 mph - N/A   Heiter
3:20 PM 84.2 °F - 50.0 °F 30% 30.09 inch - Wechselnd 5.8 mph - N/A   Heiter
3:50 PM 86.0 °F 84.2 °F 53.6 °F 33% 30.09 inch - Wechselnd 5.8 mph - N/A   Heiter
4:20 PM 84.2 °F - 51.8 °F 33% 30.09 inch - Süd 8.1 mph - N/A   Heiter
4:50 PM 86.0 °F 84.2 °F 53.6 °F 33% 30.06 inch - Wechselnd 5.8 mph - N/A   Heiter
5:20 PM 84.2 °F 82.8 °F 53.6 °F 35% 30.06 inch - West-Südwest 6.9 mph - N/A   Heiter
5:50 PM 84.2 °F 83.0 °F 55.4 °F 37% 30.06 inch - Südwest 5.8 mph - N/A   Heiter
6:20 PM 84.2 °F 83.0 °F 55.4 °F 37% 30.04 inch - West-Südwest 6.9 mph - N/A   Heiter
6:50 PM 84.2 °F 83.0 °F 55.4 °F 37% 30.04 inch - West 5.8 mph - N/A   Heiter
7:20 PM 84.2 °F 83.0 °F 55.4 °F 37% 30.04 inch - Südwest 4.6 mph - N/A   Heiter
7:50 PM 84.2 °F 83.5 °F 57.2 °F 40% 30.04 inch - Wechselnd 2.3 mph - N/A   Heiter
8:20 PM 82.4 °F 82.0 °F 57.2 °F 42% 30.04 inch - Wechselnd 2.3 mph - N/A   Heiter
8:50 PM 78.8 °F - 60.8 °F 54% 30.04 inch - Nordwest 3.5 mph - N/A   Heiter
9:20 PM 77.0 °F - 60.8 °F 57% 30.04 inch - Nordwest 2.3 mph - N/A   Heiter
9:50 PM 73.4 °F - 60.8 °F 65% 30.04 inch - Nord 2.3 mph - N/A   Heiter
10:20 PM 71.6 °F - 59.0 °F 64% 30.04 inch - Wechselnd 1.2 mph - N/A   Heiter
10:50 PM 71.6 °F - 60.8 °F 69% 30.04 inch - Ruhig Ruhig - N/A   Heiter
11:20 PM 69.8 °F - 59.0 °F 68% 30.04 inch - Wechselnd 1.2 mph - N/A   Heiter
11:50 PM 68.0 °F - 59.0 °F 73% 30.04 inch - Wechselnd 1.2 mph - N/A   Heiter